This is the latest recevied weather packets stored in our database for station/object WA0LM. If no packets are shown the sender has not sent any weather packets the latest 10 day(s).
| Time | Temp. | Humidity | Pressure | Rain* | Wind** | Luminosity | Snow |
|---|---|---|---|---|---|---|---|
| 1777559596 | 2.78° C | 66% | 1018 hPa | 0 mm | - | 457 W/m² | - |
| 1777559294 | 3.33° C | 60% | 1018 hPa | 0 mm | - | 442 W/m² | - |
| 1777558990 | 2.78° C | 64% | 1018.1 hPa | 0 mm | - | 330 W/m² | - |
| 1777558686 | 2.78° C | 65% | 1018.3 hPa | 0 mm | - | 363 W/m² | - |
| 1777558382 | 2.78° C | 65% | 1018.2 hPa | 0 mm | - | 297 W/m² | - |
| 1777558078 | 2.78° C | 64% | 1018.2 hPa | 0 mm | - | 379 W/m² | - |
| 1777557775 | 2.78° C | 69% | 1018.1 hPa | 0 mm | - | 214 W/m² | - |
| 1777557471 | 2.22° C | 65% | 1018.2 hPa | 0 mm | - | 350 W/m² | - |
| 1777557168 | 2.78° C | 69% | 1018.2 hPa | 0 mm | - | 334 W/m² | - |
| 1777556864 | 2.22° C | 65% | 1018.2 hPa | 0 mm | - | 317 W/m² | - |
| 1777556560 | 2.22° C | 65% | 1018 hPa | 0 mm | - | 304 W/m² | - |
| 1777556259 | 2.22° C | 68% | 1018.1 hPa | 0 mm | - | 289 W/m² | - |
| 1777555956 | 2.22° C | 70% | 1018.4 hPa | 0 mm | - | 273 W/m² | - |
| 1777555651 | 1.67° C | 68% | 1018.3 hPa | 0 mm | - | 258 W/m² | - |
| 1777555348 | 1.67° C | 68% | 1018.4 hPa | 0 mm | - | 244 W/m² | - |
| 1777555045 | 1.67° C | 75% | 1018.3 hPa | 0 mm | - | 232 W/m² | - |
| 1777554742 | 1.11° C | 73% | 1018.5 hPa | 0 mm | - | 103 W/m² | - |
| 1777554439 | 1.11° C | 76% | 1018.5 hPa | 0 mm | - | 55 W/m² | - |
| 1777554135 | 0.56° C | 76% | 1018.3 hPa | 0 mm | - | 46 W/m² | - |
| 1777553833 | 0.56° C | 78% | 1018.3 hPa | 0 mm | - | 67 W/m² | - |
| 1777553529 | 0.56° C | 78% | 1018.2 hPa | 0 mm | - | 56 W/m² | - |
| 1777553224 | 0.56° C | 77% | 1018.3 hPa | 0 mm | - | 44 W/m² | - |
| 1777552921 | 0° C | 77% | 1018.2 hPa | 0 mm | - | 45 W/m² | - |
| 1777552615 | 0° C | 78% | 1018 hPa | 0 mm | - | 68 W/m² | - |
| 1777552313 | 0° C | 80% | 1018.3 hPa | 0 mm | - | 58 W/m² | - |
* Rain latest hour (hover to see other rain measurements)
** Current wind speed in m/s (hover to see current wind gust speed)